Back to catalog

ONEWEB-0269

AliveCommunicationsPO
NORAD 48987·PAYLOAD·🇬🇧 United Kingdom

Launched Jul 1, 2021 from Vostochny Cosmodrome

Loading…

Next Passes (next 24 hours)

TLE

FreshSource: CelesTrak SupGP

Epoch: Sep 14, 2026, 13:26 UTC

1 48987C 21060W   26257.55990000 -.00001862  00000+0 -48756-2 0  2572
2 48987  87.9153 211.0329 0002038  88.0598  13.3109 13.16598732    13

Track ONEWEB-0269 in real time with AllMySat

Download on the App Store